Weather History for KFAF - October, 2012

Change the Weather History Date:

Sunday, October 21, 2012

  Actual Average Record
Temperature  
Mean Temperature 58 °F -  
Max Temperature 65 °F 66 °F 79 °F (2007)
Min Temperature 48 °F 49 °F 43 °F (2013)
Degree Days  
Heating Degree Days 8    
Growing Degree Days 8 (Base 50)    
Moisture  
Dew Point 44 °F    
Average Humidity 62    
Maximum Humidity 93    
Minimum Humidity 41    
Precipitation  
Precipitation 0.00 in - - ()
Sea Level Pressure  
Sea Level Pressure 30.07 in    
Wind  
Wind Speed 5 mph (North)    
Max Wind Speed 10 mph    
Max Gust Speed -    
Visibility 10 miles    
Events      
Averages and records for this station are not official NWS values.
T = Trace of Precipitation, MM = Missing Value Source: NWS Daily Summary

Daily Weather History Graph

Daily Weather History Graph

Search for Another Location

Airport or City:

Trip Planner

Search our weather history database for the weather conditions in past years. The results will help you decide how hot, cold, wet, or windy it might be!

Date:

Astronomy

Oct. 21, 2012 Rise Set
Actual Time 7:20 AM EDT 6:21 PM EDT
Civil Twilight 6:53 AM EDT 6:47 PM EDT
Nautical Twilight 6:23 AM EDT 7:17 PM EDT
Astronomical Twilight 5:53 AM EDT 7:47 PM EDT
Moon 1:36 PM EDT (10/21) No Moon Set
Length of Visible Light 11h 53m
Length of Day
11h 00m
Waxing Crescent, 45% of the Moon is Illuminated
Oct 21
Waxing Crescent
Oct 21
First Quarter
Oct 29
Full
Nov 6
Last Quarter
Nov 13
New

Hourly Weather History & Observations

Time (EDT) Temp. Dew Point Humidity Pressure Visibility Wind Dir Wind Speed Gust Speed Precip Events Conditions
12:55 AM 57.6 °F 47.7 °F 70% 29.93 in 10.0 mi NW 5.8 mph - N/A   Overcast
1:55 AM 58.3 °F 48.7 °F 71% 29.95 in 10.0 mi NNW 5.8 mph - N/A   Scattered Clouds
2:55 AM 57.6 °F 45.5 °F 64% 29.96 in 10.0 mi North 8.1 mph - N/A   Clear
3:55 AM 56.1 °F 43.7 °F 63% 29.97 in 10.0 mi NNE 4.6 mph - N/A   Clear
4:55 AM 55.2 °F 43.2 °F 64% 29.99 in 10.0 mi North 4.6 mph - N/A   Scattered Clouds
5:55 AM 54.3 °F 42.6 °F 65% 30.02 in 10.0 mi North 4.6 mph - N/A   Clear
6:55 AM 53.4 °F 42.6 °F 67% 30.05 in 10.0 mi North 3.5 mph - N/A   Clear
7:55 AM 53.4 °F 43.5 °F 69% 30.07 in 10.0 mi NNE 3.5 mph - N/A   Clear
8:55 AM 56.7 °F 44.1 °F 63% 30.10 in 10.0 mi NE 4.6 mph - N/A   Clear
9:55 AM 59.5 °F 42.1 °F 52% 30.12 in 10.0 mi NNE 10.4 mph - N/A   Clear
10:55 AM 61.7 °F 41.0 °F 47% 30.12 in 10.0 mi NE 6.9 mph - N/A   Clear
11:55 AM 62.8 °F 41.2 °F 45% 30.12 in 10.0 mi North 8.1 mph - N/A   Clear
12:55 PM 63.9 °F 40.6 °F 43% 30.11 in 10.0 mi NNW 8.1 mph - N/A   Clear
1:55 PM 64.6 °F 41.2 °F 42% 30.09 in 10.0 mi WNW 4.6 mph - N/A   Clear
2:55 PM 65.7 °F 41.4 °F 41% 30.07 in 10.0 mi Variable 4.6 mph - N/A   Clear
3:55 PM 65.3 °F 41.5 °F 42% 30.08 in 10.0 mi WNW 8.1 mph - N/A   Clear
4:55 PM 64.8 °F 41.7 °F 43% 30.06 in 10.0 mi WNW 8.1 mph - N/A   Clear
5:55 PM 61.5 °F 43.3 °F 51% 30.08 in 10.0 mi WNW 4.6 mph - N/A   Clear
6:55 PM 56.8 °F 46.9 °F 69% 30.09 in 10.0 mi Calm Calm - N/A   Clear
7:55 PM 53.8 °F 47.3 °F 79% 30.11 in 10.0 mi Calm Calm - N/A   Clear
8:55 PM 51.8 °F 47.5 °F 85% 30.12 in 10.0 mi Calm Calm - N/A   Clear
9:55 PM 51.8 °F 46.8 °F 83% 30.12 in 10.0 mi Calm Calm - N/A   Clear
10:55 PM 50.4 °F 46.0 °F 85% 30.14 in 10.0 mi Calm Calm - N/A   Clear
11:55 PM 48.6 °F 46.6 °F 93% 30.14 in 10.0 mi Calm Calm - N/A   Clear